TimeEST,TemperatureF,Dew PointF,Humidity,Sea Level PressureIn,VisibilityMPH,Wind Direction,Wind SpeedMPH,Gust SpeedMPH,PrecipitationIn,Events,Conditions,WindDirDegrees,DateUTC
12:15 AM,28.8,26.2,90,30.07,10.0,Calm,Calm,-,N/A,,Clear,0,2013-03-05 05:15:00
12:35 AM,28.6,26.8,93,30.08,7.0,Calm,Calm,-,N/A,,Clear,0,2013-03-05 05:35:00
12:55 AM,28.6,26.2,91,30.08,10.0,Calm,Calm,-,N/A,,Clear,0,2013-03-05 05:55:00
1:35 AM,28.8,27.0,93,30.08,10.0,Calm,Calm,-,N/A,,Clear,0,2013-03-05 06:35:00
1:55 AM,28.8,27.1,94,30.08,10.0,Calm,Calm,-,N/A,,Clear,0,2013-03-05 06:55:00
2:15 AM,28.6,26.6,92,30.08,10.0,Calm,Calm,-,N/A,,Clear,0,2013-03-05 07:15:00
2:35 AM,28.2,25.7,90,30.08,10.0,Calm,Calm,-,N/A,,Clear,0,2013-03-05 07:35:00
2:55 AM,28.2,25.9,91,30.08,10.0,Calm,Calm,-,N/A,,Clear,0,2013-03-05 07:55:00
3:15 AM,27.9,25.9,92,30.08,10.0,Calm,Calm,-,N/A,,Clear,0,2013-03-05 08:15:00
3:35 AM,27.1,25.2,92,30.08,10.0,Calm,Calm,-,N/A,,Clear,0,2013-03-05 08:35:00
4:15 AM,27.9,25.5,91,30.08,10.0,Calm,Calm,-,N/A,,Mostly Cloudy,0,2013-03-05 09:15:00
4:35 AM,28.8,26.2,90,30.08,10.0,Calm,Calm,-,N/A,,Overcast,0,2013-03-05 09:35:00
4:55 AM,30.0,27.3,90,30.09,10.0,Calm,Calm,-,N/A,,Overcast,0,2013-03-05 09:55:00
5:15 AM,30.9,28.4,90,30.09,10.0,Calm,Calm,-,N/A,,Overcast,0,2013-03-05 10:15:00
5:35 AM,31.8,29.1,90,30.09,10.0,Calm,Calm,-,N/A,,Overcast,0,2013-03-05 10:35:00
5:55 AM,32.0,30.0,92,30.10,10.0,Calm,Calm,-,N/A,,Overcast,0,2013-03-05 10:55:00
6:15 AM,32.4,30.6,93,30.10,10.0,Calm,Calm,-,N/A,,Overcast,0,2013-03-05 11:15:00
6:35 AM,32.9,30.7,92,30.10,10.0,Calm,Calm,-,N/A,,Overcast,0,2013-03-05 11:35:00
6:55 AM,32.9,30.4,90,30.10,10.0,Calm,Calm,-,N/A,,Overcast,0,2013-03-05 11:55:00
7:15 AM,33.1,30.4,90,30.10,10.0,Calm,Calm,-,N/A,,Mostly Cloudy,0,2013-03-05 12:15:00
7:55 AM,35.8,30.0,80,30.10,10.0,Calm,Calm,-,N/A,,Clear,0,2013-03-05 12:55:00
8:15 AM,37.2,29.1,73,30.09,10.0,Calm,Calm,-,N/A,,Clear,0,2013-03-05 13:15:00
8:35 AM,38.8,27.7,64,30.09,10.0,East,4.6,-,N/A,,Scattered Clouds,90,2013-03-05 13:35:00
8:55 AM,40.8,25.7,55,30.08,10.0,ESE,4.6,-,N/A,,Scattered Clouds,120,2013-03-05 13:55:00
9:15 AM,44.4,24.3,45,30.08,10.0,ESE,5.8,-,N/A,,Clear,120,2013-03-05 14:15:00
9:35 AM,46.4,22.1,38,30.07,10.0,SE,5.8,-,N/A,,Scattered Clouds,130,2013-03-05 14:35:00
9:55 AM,48.6,21.2,34,30.06,10.0,SSE,6.9,-,N/A,,Clear,150,2013-03-05 14:55:00
10:15 AM,50.4,21.6,32,30.06,10.0,SE,5.8,-,N/A,,Clear,140,2013-03-05 15:15:00
10:35 AM,49.6,21.2,33,30.05,10.0,SE,5.8,-,N/A,,Clear,130,2013-03-05 15:35:00
10:55 AM,51.3,22.3,32,30.04,10.0,SSE,5.8,-,N/A,,Clear,150,2013-03-05 15:55:00
11:15 AM,53.6,23.5,31,30.02,10.0,SE,4.6,-,N/A,,Scattered Clouds,140,2013-03-05 16:15:00
11:35 AM,53.2,24.1,32,30.02,10.0,SSE,3.5,-,N/A,,Overcast,150,2013-03-05 16:35:00
11:55 AM,53.8,24.6,32,30.01,10.0,Calm,Calm,-,N/A,,Overcast,0,2013-03-05 16:55:00
12:15 PM,53.8,25.0,33,30.01,10.0,SSE,3.5,-,N/A,,Overcast,150,2013-03-05 17:15:00
12:35 PM,53.8,25.7,34,30.00,10.0,SSE,3.5,-,N/A,,Overcast,150,2013-03-05 17:35:00
12:55 PM,53.8,25.7,34,29.98,10.0,East,3.5,-,N/A,,Overcast,100,2013-03-05 17:55:00
1:15 PM,54.3,26.8,35,29.97,10.0,East,3.5,-,N/A,,Overcast,90,2013-03-05 18:15:00
1:55 PM,55.0,27.9,35,29.96,10.0,Calm,Calm,-,N/A,Rain,Light Rain,0,2013-03-05 18:55:00
2:15 PM,54.5,30.0,39,29.96,10.0,Calm,Calm,-,N/A,Rain,Light Rain,0,2013-03-05 19:15:00
2:35 PM,54.0,31.1,42,29.95,10.0,Calm,Calm,-,N/A,Rain,Light Rain,0,2013-03-05 19:35:00
2:55 PM,53.4,33.1,46,29.94,10.0,Calm,Calm,-,N/A,Rain,Light Rain,0,2013-03-05 19:55:00
3:15 PM,52.0,35.8,54,29.93,10.0,North,4.6,-,N/A,Rain,Light Rain,350,2013-03-05 20:15:00
3:35 PM,50.9,38.3,62,29.93,10.0,NNW,4.6,-,N/A,Rain,Light Rain,330,2013-03-05 20:35:00
3:55 PM,50.2,39.4,66,29.93,10.0,NNW,6.9,-,N/A,Rain,Light Rain,330,2013-03-05 20:55:00
4:15 PM,48.2,41.7,78,29.92,7.0,Calm,Calm,-,N/A,Rain,Rain,0,2013-03-05 21:15:00
4:35 PM,47.5,42.6,83,29.92,10.0,Calm,Calm,-,N/A,,Drizzle,0,2013-03-05 21:35:00
4:55 PM,46.8,42.8,86,29.91,10.0,Calm,Calm,-,0.01,,Drizzle,0,2013-03-05 21:55:00
5:15 PM,46.4,43.0,88,29.90,7.0,Calm,Calm,-,N/A,Rain,Light Rain,0,2013-03-05 22:15:00
5:35 PM,46.0,43.2,90,29.89,7.0,NNE,3.5,-,N/A,,Overcast,20,2013-03-05 22:35:00
5:55 PM,45.9,42.8,89,29.89,7.0,NNE,4.6,-,0.01,Rain,Rain,30,2013-03-05 22:55:00
6:15 PM,45.7,42.6,89,29.88,10.0,NE,6.9,-,N/A,Rain,Light Rain,50,2013-03-05 23:15:00
6:35 PM,45.3,41.4,86,29.87,10.0,ENE,6.9,-,N/A,,Overcast,60,2013-03-05 23:35:00
6:55 PM,44.2,39.6,84,29.86,10.0,ENE,6.9,-,N/A,,Overcast,70,2013-03-05 23:55:00
7:15 PM,43.7,38.1,81,29.85,10.0,ENE,6.9,-,N/A,,Overcast,60,2013-03-06 00:15:00
7:35 PM,43.3,37.4,80,29.84,10.0,ENE,6.9,-,N/A,,Overcast,70,2013-03-06 00:35:00
7:55 PM,43.3,36.7,77,29.83,10.0,East,8.1,-,N/A,,Overcast,80,2013-03-06 00:55:00
8:15 PM,43.0,36.3,77,29.80,10.0,East,11.5,-,N/A,,Overcast,80,2013-03-06 01:15:00
8:35 PM,42.8,35.2,75,29.80,10.0,East,8.1,17.3,N/A,,Mostly Cloudy,100,2013-03-06 01:35:00
8:55 PM,42.8,34.7,73,29.77,10.0,East,9.2,-,N/A,,Mostly Cloudy,90,2013-03-06 01:55:00
9:15 PM,42.6,34.7,74,29.76,10.0,East,8.1,-,N/A,,Mostly Cloudy,90,2013-03-06 02:15:00
9:35 PM,42.8,34.9,74,29.73,10.0,East,10.4,16.1,N/A,,Mostly Cloudy,90,2013-03-06 02:35:00
9:55 PM,43.0,35.1,74,29.72,10.0,East,9.2,-,N/A,Rain,Light Rain,100,2013-03-06 02:55:00
10:15 PM,42.4,35.8,77,29.72,10.0,East,6.9,-,N/A,Rain,Rain,100,2013-03-06 03:15:00
10:35 PM,41.9,37.0,83,29.71,7.0,East,4.6,-,0.02,Rain,Rain,90,2013-03-06 03:35:00
10:55 PM,41.4,37.6,86,29.66,5.0,East,8.1,-,0.07,Rain,Rain,100,2013-03-06 03:55:00
11:15 PM,41.0,38.1,89,29.65,5.0,East,8.1,-,0.04,Rain,Rain,90,2013-03-06 04:15:00
11:35 PM,41.0,38.5,91,29.62,7.0,East,8.1,-,0.07,Rain,Rain,80,2013-03-06 04:35:00
11:55 PM,41.4,39.0,91,29.61,7.0,ESE,3.5,-,0.09,Rain,Light Rain,110,2013-03-06 04:55:00